RH
88 86 82 76 69 61 55 49 44 40 37 34 32 30 28 27 25 24 23 22 20 19 18 17 16 15 14 13 13 12 12 11 11 11 11 11 11 11 12 12 13 14 14 14 14 14 13 13 12 13 12 12 12 12 12 12 13 13 13 14 14 14 14 13 12 12 11 10 10 9 10 10 12 13 13 15 14 18 20 24 28 29 35 35 40 50 49 46
91 89 85 77 68 60 53 46 41 37 34 32 29 28 26 25 24 22 21 20 19 18 17 16 14 14 13 12 12 11 11 11 10 10 10 10 10 10 10 10 11 11 12 13 13 14 13 13 12 12 11 12 12 11 12 11 12 12 12 12 13 14 13 14 13 13 13 13 12 11 10 9 10 10 11 12 12 13 13 16 17 18 23 24 27 33 31 31
90 88 83 74 64 57 50 44 40 36 33 30 28 26 24 23 22 21 20 19 18 17 15 15 13 13 12 11 11 11 10 10 10 10 10 10 10 10 10 10 10 10 10 11 12 12 13 13 12 12 12 11 11 11 11 11 11 11 11 11 11 12 12 13 13 13 13 13 14 14 13 12 11 11 10 10 10 11 11 11 12 13 16 17 18 20 20 21
88 84 77 68 60 54 48 44 39 36 33 30 27 25 24 22 21 20 19 18 16 15 14 13 12 12 11 11 11 11 11 10 10 11 11 11 11 11 10 10 10 10 10 10 10 11 11 12 12 12 12 11 11 11 11 11 11 11 11 11 10 10 10 11 11 12 13 13 14 14 15 15 14 13 12 12 11 10 10 10 12 13 11 14 22 23 19 19
86 80 73 65 59 53 48 43 39 35 32 29 27 25 23 22 20 19 17 16 15 14 13 13 12 12 12 12 12 12 12 11 12 12 12 12 12 12 12 11 11 10 10 10 10 10 10 11 11 11 11 11 11 11 11 11 10 10 11 11 10 10 10 10 10 11 12 13 14 14 15 15 16 16 15 14 13 12 11 11 11 11 12 21 30 26 17 18
84 77 70 63 56 51 46 41 37 34 31 29 26 24 22 20 18 17 16 15 14 13 13 13 13 13 13 13 13 14 13 14 15 15 14 14 14 14 14 14 13 12 12 11 11 11 11 11 11 11 11 10 10 11 10 11 10 11 11 10 10 10 10 10 10 10 11 12 14 15 15 15 16 16 16 17 16 16 14 13 13 14 21 30 30 24 19 18
80 73 66 59 53 48 43 39 36 32 29 27 24 22 20 18 17 15 15 14 14 14 14 14 14 15 15 15 16 16 16 17 17 17 17 17 16 16 16 16 15 15 14 14 13 13 12 12 12 11 11 11 11 11 11 11 11 11 11 11 11 11 10 10 10 11 10 12 14 15 16 16 16 16 17 17 17 17 16 15 14 18 27 35 37 29 21 17
75 67 60 54 49 45 41 36 32 29 26 24 21 20 18 17 16 15 15 14 15 15 15 15 16 17 18 19 19 19 19 19 19 19 18 17 17 17 17 17 17 17 17 17 16 15 15 14 14 13 13 13 12 12 11 12 12 12 12 12 12 12 11 11 11 11 11 12 14 16 17 17 17 17 18 17 18 17 17 17 14 17 19 27 40 31 18 17
67 61 56 52 46 41 36 32 29 26 24 22 20 19 18 17 16 16 16 16 16 16 17 18 19 21 23 23 22 21 20 20 19 18 18 17 17 16 17 17 17 17 17 18 18 18 18 17 17 16 15 15 14 15 14 14 15 14 13 13 13 13 13 12 13 13 13 13 15 17 17 18 18 18 19 18 19 19 18 18 16 17 13 22 38 28 15 15
62 58 53 47 41 36 32 29 27 25 23 21 20 19 18 18 17 17 17 17 18 18 21 22 24 25 25 24 23 21 20 19 17 16 16 16 16 15 16 16 16 17 17 17 18 18 18 18 18 18 18 17 17 17 16 17 17 15 15 15 15 15 14 14 14 14 14 14 15 17 17 18 19 20 21 20 21 21 20 19 18 18 15 21 29 21 17 19
54 50 45 40 35 32 30 28 27 25 23 22 21 20 19 18 18 19 19 20 21 24 26 28 28 27 26 24 22 20 19 18 17 16 16 15 16 16 15 16 16 16 16 17 17 17 18 19 19 19 19 18 18 19 18 19 18 17 18 17 17 17 16 15 16 16 15 16 16 17 18 19 21 22 22 22 24 23 22 22 19 19 18 20 25 23 24 27
46 42 38 35 33 31 30 29 27 26 24 22 21 20 19 19 21 22 23 25 27 30 31 30 29 27 25 23 20 19 18 18 17 17 17 17 16 16 16 16 16 16 16 17 17 17 18 18 19 19 19 18 20 20 19 21 20 21 22 20 19 18 17 17 17 18 17 17 18 18 19 21 24 24 23 25 26 25 24 23 21 21 20 19 23 30 38 37
41 39 36 34 33 32 31 30 28 26 24 23 22 21 20 23 25 28 30 32 34 33 32 30 28 26 24 22 20 19 18 19 19 18 18 17 17 17 17 16 16 17 16 17 17 17 18 18 19 19 19 20 21 20 20 23 23 24 24 22 21 20 19 21 19 19 19 19 20 20 22 24 26 26 25 27 28 27 26 25 24 22 22 20 23 39 52 44
39 38 35 35 33 32 31 29 28 26 25 23 22 22 24 29 32 35 37 37 36 33 31 29 27 25 23 21 20 19 19 19 19 19 19 18 18 17 17 17 17 17 17 18 17 18 18 18 19 18 19 20 20 20 23 25 24 25 26 24 24 23 25 25 22 22 23 23 23 23 25 27 29 30 28 29 30 29 27 27 25 23 24 23 23 33 37 28
38 37 35 34 33 32 30 29 28 26 25 24 23 25 31 36 39 41 42 40 36 33 30 28 27 25 22 21 21 20 20 20 20 19 19 19 18 18 18 18 18 18 18 18 18 18 18 18 18 18 19 20 20 22 23 24 25 26 27 27 29 31 31 28 25 28 29 28 27 28 30 32 33 31 29 30 32 30 29 28 26 25 24 22 24 29 30 28
37 36 35 34 32 31 29 28 27 26 25 24 26 33 40 43 45 46 44 41 36 33 30 29 27 25 22 21 21 21 20 20 20 20 19 19 18 18 18 18 18 19 18 19 19 18 18 18 18 18 19 19 20 22 22 23 25 26 28 31 33 36 36 31 31 35 34 31 32 34 35 37 34 30 30 34 33 31 30 29 28 26 24 26 32 35 36 35
37 36 35 33 32 30 28 28 27 27 26 25 32 42 48 49 49 47 44 41 37 33 31 30 29 25 22 22 22 22 21 20 20 20 20 19 19 19 18 19 19 18 18 18 19 18 18 18 18 18 18 19 20 21 22 23 25 26 28 32 35 37 39 36 36 40 38 35 37 39 38 38 34 31 34 36 34 32 30 29 28 26 25 31 36 32 32 27
35 35 33 32 31 29 28 29 28 28 27 29 41 50 52 52 50 47 43 40 37 34 33 33 30 26 23 23 24 23 22 21 21 20 20 19 19 19 19 19 18 18 18 18 18 18 18 18 18 18 18 19 20 20 21 22 24 26 27 31 33 36 40 38 38 41 39 38 40 40 39 39 36 35 35 35 33 32 31 30 29 27 27 30 30 28 29 28
33 32 32 32 30 29 29 30 30 29 29 37 51 56 55 53 49 46 42 40 38 36 36 35 31 27 25 25 25 24 23 22 21 20 20 20 19 19 19 19 18 18 18 18 18 18 18 18 18 18 19 19 19 20 21 21 23 24 26 29 31 33 38 38 37 39 40 41 42 42 41 40 37 36 35 34 34 32 30 30 29 27 27 28 26 25 29 37
33 32 32 31 30 30 30 31 32 30 34 49 60 60 57 52 48 45 41 40 40 38 37 36 32 29 27 27 27 25 24 23 22 21 20 20 19 19 19 18 18 18 18 18 18 18 19 18 19 19 19 19 19 20 20 21 22 24 28 29 31 32 36 38 34 34 39 41 41 41 40 39 37 36 35 34 33 32 30 30 30 27 27 27 26 25 28 34
35 34 34 33 32 33 31 34 34 33 46 63 64 61 58 50 46 44 41 41 42 41 39 37 33 30 29 30 29 26 24 23 22 21 20 20 19 19 19 18 18 18 18 18 18 19 19 19 20 19 19 19 20 21 21 22 23 25 27 27 29 31 34 35 29 30 38 39 38 39 39 38 37 35 34 33 33 32 30 29 30 28 27 27 26 25 24 26
36 36 37 36 35 35 33 36 36 38 61 75 67 62 57 49 46 44 42 43 43 43 41 38 34 31 31 33 31 27 25 24 22 21 20 20 19 19 19 18 18 18 18 19 19 20 20 20 20 19 19 21 21 22 21 22 23 24 26 26 28 30 32 31 26 30 37 36 34 35 36 36 36 35 32 33 31 30 30 30 30 28 26 26 27 27 25 24
38 38 38 37 37 36 36 39 36 44 72 81 70 65 58 49 47 43 43 44 44 45 42 39 35 32 33 34 32 28 27 25 23 22 21 20 19 19 18 18 18 18 18 20 20 20 21 21 21 20 21 22 22 22 22 23 24 24 26 27 28 29 30 28 26 30 32 32 32 32 34 36 34 33 30 30 29 28 30 29 28 27 25 26 27 28 28 25
40 40 40 39 40 38 39 40 38 53 81 83 72 69 60 51 48 42 44 45 45 47 44 39 36 34 34 34 33 30 28 26 24 22 21 20 20 19 18 18 18 19 19 20 20 21 21 21 22 23 23 24 23 23 23 23 24 25 26 26 28 28 28 26 26 27 28 31 31 30 33 34 32 32 31 30 28 28 29 28 29 28 27 28 29 29 28 26
44 44 43 43 42 41 41 40 42 62 85 83 75 72 62 55 50 42 43 46 45 47 47 42 38 36 36 34 33 32 30 28 25 23 21 20 20 19 19 18 18 19 19 20 21 21 21 22 24 24 24 24 24 24 24 24 25 25 26 27 27 26 25 25 25 26 29 31 31 31 32 31 31 33 32 29 28 27 28 29 30 29 29 28 29 30 26 25
48 47 47 45 44 44 43 43 46 64 85 88 81 74 64 58 52 43 43 46 45 47 48 45 40 38 38 35 33 34 32 29 26 23 21 20 20 19 19 18 18 19 19 20 21 21 22 24 25 24 24 24 24 25 25 25 26 26 27 27 26 26 26 25 26 28 30 31 32 31 30 29 31 33 32 30 29 28 29 33 33 34 38 34 31 32 25 25
51 51 50 47 47 47 46 50 54 66 86 93 83 73 64 57 52 46 43 45 46 48 49 48 44 42 41 37 34 35 35 31 28 24 22 20 20 20 19 19 18 19 19 20 21 22 23 25 25 25 25 25 25 25 25 25 26 27 28 27 26 27 27 26 28 30 31 32 33 31 29 30 31 32 33 31 30 29 30 35 35 34 36 31 31 38 32 28
54 53 52 50 50 47 50 63 70 75 85 86 76 67 61 55 51 46 43 45 49 51 50 50 49 45 43 39 35 36 38 33 29 25 22 21 20 20 20 19 19 19 19 20 21 22 23 25 25 25 25 25 25 24 25 26 27 28 29 29 29 29 29 30 30 31 33 33 33 32 29 30 33 34 33 32 32 31 30 32 33 31 31 32 40 50 46 41
56 56 54 52 50 48 61 80 85 80 77 71 64 60 58 54 50 46 42 46 55 57 53 51 50 48 46 42 37 39 40 34 30 28 24 22 21 20 21 20 19 19 20 21 21 22 24 25 25 26 27 26 25 25 26 27 28 29 31 31 32 31 32 32 32 34 36 35 33 33 31 32 34 33 31 32 31 32 32 30 30 30 33 40 47 57 63 65
58 57 55 52 50 56 75 86 81 75 69 62 58 56 56 51 48 45 41 53 69 65 54 50 52 53 49 45 40 40 41 37 33 30 25 22 21 21 21 21 20 20 21 20 21 23 25 26 27 28 27 26 26 26 26 27 28 29 31 32 33 35 35 35 36 38 37 35 34 33 35 36 35 33 36 36 32 35 36 31 36 37 38 46 44 51 68 76
57 55 53 51 52 65 82 82 73 69 64 60 56 52 53 50 46 42 45 68 80 67 56 55 55 56 51 45 42 40 43 42 36 32 28 23 21 21 22 23 23 23 23 21 22 24 26 27 28 28 27 26 26 26 26 27 28 30 32 33 34 36 38 39 41 42 43 41 37 39 42 41 39 37 39 38 30 34 42 45 54 52 49 54 46 49 69 78
54 52 51 50 53 65 79 79 71 66 60 58 53 49 52 50 43 42 55 80 83 68 66 61 54 55 51 46 43 40 44 45 39 35 31 26 22 21 23 25 26 26 24 23 23 24 25 27 28 27 27 26 26 27 27 27 28 31 33 35 39 43 44 43 43 45 50 47 43 50 52 49 50 38 36 53 52 39 42 50 58 59 62 66 49 50 76 91
56 54 52 51 52 59 69 73 70 64 58 54 49 47 51 48 45 52 68 88 88 73 67 62 55 55 51 48 44 41 46 49 44 38 34 29 24 22 24 26 30 31 28 26 24 23 25 26 27 28 28 28 29 30 30 31 31 33 36 37 43 49 45 41 46 56 64 65 62 61 57 60 65 42 40 79 85 59 55 61 61 61 70 82 72 63 72 78
61 60 57 55 52 53 58 61 61 58 52 49 46 46 50 48 50 63 80 92 86 66 59 62 59 54 51 49 45 45 48 52 49 41 37 33 26 23 25 29 37 39 34 32 30 28 28 27 29 31 31 32 32 33 34 35 35 36 38 42 52 59 50 42 53 66 69 72 70 60 54 63 68 48 44 71 74 63 74 80 70 62 69 89 93 81 74 73
74 72 70 66 61 56 53 53 52 51 49 49 47 46 49 51 55 71 86 87 72 58 59 63 58 54 53 49 48 47 47 53 55 46 40 38 31 26 26 33 43 41 38 39 37 36 34 32 33 33 33 36 34 33 35 36 38 39 40 50 65 69 56 45 51 61 64 62 58 55 53 56 63 61 59 69 76 80 88 88 81 75 77 85 84 80 88 92
86 83 81 78 73 66 60 58 57 54 53 51 48 48 50 52 59 71 78 75 63 57 61 61 56 56 54 50 50 48 47 57 62 54 46 42 36 29 27 37 48 46 44 46 41 40 41 39 36 34 35 39 35 34 36 37 41 42 40 54 68 66 57 50 49 55 64 64 57 60 64 67 82 91 83 85 98 100 92 90 93 88 81 78 70 68 81 87
84 82 80 77 74 70 64 62 61 59 57 53 50 53 53 54 61 66 67 69 66 58 56 56 54 56 55 53 51 49 50 58 64 62 54 51 48 39 32 39 52 56 57 56 47 43 45 42 38 39 40 39 36 35 36 39 42 41 44 56 63 62 60 59 56 54 62 67 62 66 78 86 98 104 97 97 102 96 87 89 99 96 87 87 81 68 67 69
75 74 73 70 69 67 63 61 60 58 57 54 53 55 54 55 60 60 59 64 63 53 50 53 54 56 56 52 51 53 51 53 67 71 60 59 61 50 40 38 48 64 71 70 61 47 45 47 44 46 45 40 42 42 41 44 43 42 49 54 56 61 62 59 60 57 60 68 67 68 78 84 89 91 91 94 88 76 71 77 92 100 96 96 97 87 74 65
60 59 58 58 57 56 54 53 51 51 50 49 49 49 49 50 52 51 51 55 54 48 48 49 49 52 54 52 54 59 53 52 71 78 68 67 63 54 52 42 42 64 79 84 81 64 59 60 50 47 47 44 47 48 51 57 53 51 55 53 55 64 62 56 58 59 61 69 70 67 67 68 70 73 76 80 76 65 57 59 76 95 99 97 101 99 88 76
55 53 52 51 49 48 46 45 44 43 43 43 42 42 43 43 45 45 45 48 47 45 45 45 45 50 54 54 54 58 60 60 69 75 74 72 63 61 67 54 42 60 82 95 97 89 87 79 57 45 45 47 52 53 58 64 59 55 56 53 58 65 63 59 62 64 66 67 67 66 63 59 60 62 67 72 68 58 51 47 54 69 84 93 98 99 93 86
60 58 57 55 53 51 49 48 47 46 45 45 44 44 43 43 46 47 45 45 45 44 44 42 45 49 50 52 54 59 65 64 67 77 78 71 67 68 72 62 50 57 82 100 100 99 105 97 75 59 51 56 61 55 56 61 59 59 59 57 62 66 65 61 58 62 64 59 57 59 59 57 56 58 63 66 61 54 49 46 44 48 60 73 81 86 89 87
59 57 55 53 52 50 48 48 47 46 46 46 46 47 46 48 52 51 48 48 48 49 47 43 46 49 48 52 55 56 60 63 70 84 86 78 76 75 71 65 56 55 74 92 96 100 107 105 98 87 78 76 67 57 65 71 64 64 65 64 64 65 66 59 51 55 59 55 53 55 55 55 56 60 62 63 61 54 46 44 43 45 56 68 71 76 82 83
50 47 45 43 42 41 40 39 38 38 38 38 40 42 42 44 48 46 46 49 52 53 51 49 51 51 49 52 51 52 60 65 72 85 92 87 81 81 80 72 61 57 62 73 91 104 104 103 105 102 100 96 78 75 91 87 71 72 78 80 78 77 77 72 65 65 62 57 58 60 61 62 68 79 82 74 65 56 48 45 43 51 70 85 87 86 87 87
39 37 36 34 32 31 30 30 29 29 29 28 30 32 33 36 38 39 42 46 48 50 51 54 55 52 52 54 54 56 61 66 74 89 101 100 91 90 89 75 62 58 56 61 85 106 105 101 102 100 102 104 95 98 105 92 82 89 93 93 94 95 93 87 82 79 73 71 76 82 82 75 75 89 96 87 72 61 56 51 48 60 81 94 98 97 97 98
33 32 31 29 27 26 25 25 25 25 24 24 23 24 25 27 30 32 36 39 40 42 47 50 51 52 56 59 59 60 61 66 77 91 105 110 102 93 86 75 64 56 52 53 66 88 99 100 102 102 100 101 100 102 101 94 97 104 101 100 102 104 102 97 92 90 85 86 92 97 96 86 78 85 94 93 84 74 70 65 62 72 84 88 91 95 98 102
34 33 31 29 28 27 26 25 24 23 24 24 23 21 21 21 23 26 29 32 34 37 41 44 47 51 57 61 63 62 63 68 72 84 102 110 105 96 84 75 68 58 53 51 50 61 78 87 94 99 100 102 101 96 94 97 104 108 105 105 106 105 105 103 101 100 97 98 102 102 100 95 90 94 99 99 94 85 80 79 78 78 78 76 78 84 90 96
37 35 34 32 30 29 28 27 25 23 23 24 23 22 20 20 20 22 23 26 28 32 37 41 45 50 53 60 66 66 68 72 71 80 94 98 102 104 88 74 73 67 60 57 53 53 60 72 86 92 93 100 102 98 97 100 105 107 105 105 105 105 106 106 104 103 101 101 104 103 101 100 100 102 103 101 98 93 90 90 89 84 78 76 78 82 85 90
38 37 34 33 31 29 28 26 26 24 23 23 21 21 20 19 20 21 21 22 24 28 33 37 41 45 48 56 65 68 72 75 74 77 81 81 94 105 92 77 76 74 67 62 60 58 57 65 80 88 90 94 98 102 101 96 94 99 103 105 106 105 105 105 104 105 104 103 102 101 101 104 102 100 102 104 101 97 96 95 93 90 86 85 87 89 87 86
37 36 33 32 31 30 28 26 24 23 22 21 19 19 19 19 19 20 21 21 22 24 30 34 38 41 43 49 57 65 74 77 75 79 81 81 91 101 97 89 84 83 83 75 65 62 61 61 67 75 83 87 93 102 106 98 87 87 91 93 96 101 103 104 103 105 107 104 102 101 102 103 101 98 101 103 100 99 100 98 93 91 91 94 97 96 93 90
36 35 33 32 31 31 28 25 24 22 20 19 17 16 16 16 18 19 19 21 22 23 27 31 35 39 41 44 49 59 72 77 79 85 88 86 90 97 102 103 96 93 93 86 75 69 67 64 64 65 68 72 79 93 105 105 97 94 93 87 85 89 91 92 96 100 104 104 104 106 106 104 103 101 101 101 99 100 103 102 98 93 91 94 99 101 98 93
36 35 34 32 31 30 28 26 24 21 17 16 15 14 14 15 16 17 19 21 22 24 27 29 33 38 39 42 46 54 66 75 80 85 88 87 87 90 98 102 96 90 88 86 87 85 76 68 67 68 67 65 69 78 90 96 94 93 95 91 88 91 92 93 96 98 99 102 104 104 104 105 105 104 102 101 102 103 105 105 103 97 91 91 96 98 98 94
37 36 35 34 33 31 29 28 25 19 16 15 15 15 14 14 15 17 18 21 22 24 26 28 32 36 39 41 44 48 57 69 78 84 87 90 89 89 97 101 96 91 88 87 96 103 96 84 75 73 73 72 71 70 72 77 77 78 86 88 83 86 95 98 99 98 97 99 102 101 100 103 106 108 109 108 108 109 109 106 102 96 91 90 91 92 94 94
Wind_Speed
62 62 62 62 63 63 63 64 64 65 66 67 68 68 69 70 71 72 72 73 74 74 75 75 76 76 77 77 78 78 79 79 80 80 81 82 82 83 83 83 82 83 82 82 83 83 83 83 84 84 84 84 84 85 85 86 87 87 88 89 90 90 92 91 90 90 90 87 83 87 91 90 90 91 92 93 93 93 94 94 94 94 92 91 90 88 91 92
63 63 63 63 64 64 64 65 65 66 67 67 68 69 70 71 72 72 73 74 75 75 76 76 77 77 77 78 78 78 79 79 79 80 81 82 82 83 84 84 84 84 84 84 84 85 84 84 84 83 83 83 83 83 83 84 84 85 86 88 89 90 92 90 89 89 89 87 85 87 89 88 88 89 90 91 92 92 92 93 93 93 89 88 89 88 91 92
63 64 64 64 64 64 65 65 66 67 67 68 69 70 70 71 72 73 74 75 75 76 76 77 77 77 77 77 78 78 78 78 78 78 80 80 81 82 83 83 84 84 84 85 85 86 86 86 85 84 84 83 83 82 82 83 83 84 84 85 87 89 89 88 88 88 87 87 86 88 88 87 87 88 89 88 89 90 90 91 90 90 87 87 88 90 92 92
64 64 64 64 65 65 65 66 66 67 68 69 70 70 71 72 73 74 74 75 75 75 75 76 76 76 76 76 76 76 76 76 75 76 77 78 79 80 81 82 83 83 84 84 85 86 86 86 86 86 85 84 83 83 83 83 83 84 83 85 86 85 85 85 86 86 86 86 86 88 88 87 87 87 87 87 88 88 88 88 86 85 85 84 83 86 89 89
63 64 65 65 65 65 66 66 67 67 68 69 70 71 71 72 73 73 73 73 74 74 74 75 75 75 75 74 74 74 74 72 72 74 75 75 76 77 79 79 80 81 82 83 84 84 85 86 86 86 85 84 84 83 83 84 84 83 83 86 85 83 84 83 82 83 84 85 85 86 86 86 86 86 86 86 87 87 87 86 85 83 81 77 78 83 86 85
64 64 65 65 65 65 66 66 67 67 68 69 70 70 71 71 71 72 72 72 72 72 72 72 72 72 72 72 71 71 70 69 69 71 72 72 73 74 75 76 77 78 79 80 81 82 83 84 84 84 84 84 84 83 84 84 83 83 84 85 84 83 84 81 80 81 81 82 83 84 84 84 84 85 84 85 86 86 86 85 84 79 75 74 77 81 82 81
64 64 64 64 65 65 65 65 66 67 67 68 69 69 69 69 69 70 70 70 70 70 70 69 69 69 68 68 67 67 66 65 66 68 68 69 70 71 72 73 74 75 76 77 78 79 80 81 81 82 82 82 81 82 83 82 82 82 83 83 82 83 82 79 79 80 79 80 81 81 82 82 82 82 82 83 84 85 85 84 83 78 74 72 72 77 79 79
63 63 63 64 64 64 64 65 65 66 66 67 67 68 68 68 68 68 68 68 67 67 66 66 65 65 64 64 63 63 62 62 64 65 65 66 67 68 68 70 70 72 73 74 75 76 77 77 78 79 79 79 78 79 80 79 80 81 81 81 81 81 80 79 78 78 78 78 78 79 80 80 80 80 80 81 81 83 83 82 82 79 77 72 69 76 80 77
62 62 63 63 63 64 64 64 65 65 66 66 66 66 66 66 66 66 66 65 64 64 63 62 61 61 60 60 60 60 59 61 62 63 64 64 65 65 66 67 68 69 70 71 72 73 74 74 75 75 75 76 75 75 76 75 77 79 78 79 79 79 78 77 76 77 77 76 76 77 78 78 77 77 78 79 78 80 80 79 80 79 78 71 68 76 78 75
62 62 63 63 63 63 64 64 65 65 65 65 65 65 64 64 64 63 63 62 61 60 60 59 58 57 57 57 58 57 57 60 60 61 62 63 63 64 64 65 66 67 68 69 70 71 72 72 73 73 73 73 72 72 73 73 75 75 75 76 76 77 76 75 75 75 75 75 75 76 76 75 75 75 76 76 75 77 77 77 78 77 75 70 69 74 74 72
63 63 63 63 63 63 64 64 64 64 64 64 63 63 62 62 61 61 60 59 58 57 56 56 55 55 55 55 55 55 56 58 58 59 60 61 61 62 62 63 64 65 66 67 69 70 70 71 72 72 72 72 70 71 70 71 73 71 73 74 74 75 74 73 73 73 73 73 73 74 74 73 72 74 74 73 73 75 75 75 76 74 71 68 68 69 68 69
63 63 63 63 63 63 63 63 64 63 63 62 61 61 60 59 58 57 57 56 55 54 54 53 53 53 53 54 54 54 55 56 56 57 58 59 59 60 61 62 63 64 65 66 67 68 69 70 71 72 71 69 68 70 68 69 70 69 71 72 71 73 71 70 71 70 71 71 71 71 71 70 71 73 72 70 72 73 73 74 73 72 70 67 65 62 62 67
65 64 64 64 64 63 63 63 63 62 61 60 59 58 57 56 55 54 54 53 52 52 51 51 51 51 51 52 52 53 53 54 55 55 56 57 58 59 59 60 61 63 64 65 66 67 68 69 70 71 69 68 70 69 66 67 68 67 70 69 69 70 68 68 69 68 68 68 69 69 68 68 69 71 69 67 70 72 71 72 72 71 69 66 63 58 59 65
66 65 65 64 64 63 63 62 61 60 59 58 57 56 55 53 52 52 51 50 50 50 49 49 49 50 50 50 51 51 51 52 53 53 55 56 56 57 58 58 60 61 62 63 65 66 67 68 69 69 68 69 69 65 65 68 67 66 68 67 66 65 65 67 66 64 66 66 66 66 66 66 67 69 67 65 68 70 70 71 71 70 68 66 64 62 63 67
67 66 66 64 64 63 62 60 59 58 57 56 54 53 52 51 50 49 49 48 48 48 48 48 48 48 48 48 49 50 49 50 51 52 53 54 54 55 55 56 57 58 60 61 63 65 65 66 68 68 68 69 66 65 67 67 65 65 64 63 63 63 64 65 62 62 64 64 63 63 63 64 67 67 63 64 66 69 69 70 71 69 67 66 64 62 64 65
68 67 66 64 63 61 59 58 57 56 55 53 52 51 50 49 48 48 47 47 47 46 46 46 46 46 46 46 47 47 47 48 50 50 51 52 52 52 53 54 55 56 57 59 61 62 63 65 66 66 67 67 66 66 67 65 64 64 62 61 61 61 64 62 59 61 63 61 60 61 62 65 67 63 59 63 66 68 68 69 71 69 65 63 59 58 60 63
68 67 66 64 61 59 57 56 55 54 53 52 50 49 48 47 47 47 46 46 45 45 45 45 45 44 43 44 45 46 46 47 48 48 49 50 50 50 51 51 53 54 55 57 58 60 61 63 64 64 65 65 65 65 65 63 63 63 61 62 62 61 62 60 57 59 61 58 58 60 62 65 65 59 59 65 67 67 68 68 70 67 63 60 57 58 62 64
67 66 64 62 60 58 56 55 54 53 52 50 49 48 47 46 46 46 46 45 44 44 44 44 44 42 41 43 43 44 44 45 46 46 47 47 48 48 49 50 51 52 54 55 56 58 59 61 61 62 62 63 63 63 63 63 63 63 62 62 61 60 60 60 57 57 58 56 57 60 61 64 62 59 61 65 66 67 66 66 69 66 61 60 61 61 60 60
66 64 63 61 59 57 55 54 53 52 51 49 48 47 46 46 46 46 45 44 43 43 43 43 42 40 40 41 42 42 43 43 44 44 45 45 46 47 48 49 49 51 52 53 55 56 57 58 59 59 59 60 61 62 63 63 63 62 61 61 61 59 60 60 57 54 55 55 57 59 61 63 62 60 62 64 65 66 64 65 67 65 61 61 63 62 57 54
65 64 63 61 59 57 55 53 52 51 50 48 48 47 46 46 45 45 45 43 43 43 42 42 41 38 38 40 40 41 41 42 42 43 43 44 44 45 46 47 48 49 50 52 53 54 55 55 56 57 58 59 59 60 61 60 59 59 61 62 61 60 60 62 58 52 54 57 58 60 61 63 62 60 61 63 64 64 63 64 65 64 62 61 62 61 58 55
65 64 63 61 59 57 55 52 51 50 49 48 48 47 46 45 45 45 44 43 42 43 42 41 40 37 37 39 40 40 40 40 41 42 42 43 43 44 45 45 46 48 49 49 50 52 52 53 54 55 56 56 56 58 57 57 58 60 62 61 61 61 61 63 58 50 54 59 58 60 61 61 62 61 60 61 62 62 62 63 64 63 61 60 60 59 58 57
64 63 62 61 59 57 54 51 50 49 48 47 47 47 46 44 44 44 44 43 42 42 42 41 39 37 36 38 39 39 38 39 40 41 41 41 42 42 43 44 45 46 47 47 49 50 50 51 52 53 52 52 54 55 55 56 58 59 60 60 60 61 61 62 56 50 57 61 59 59 59 60 62 61 60 60 61 60 60 61 62 62 61 59 57 56 56 56
62 61 60 59 58 56 53 51 49 48 47 47 47 47 45 43 43 44 43 43 41 41 42 40 38 36 36 38 39 37 37 38 38 39 40 40 40 41 42 43 44 45 45 46 48 48 49 50 50 49 49 50 52 53 53 54 56 57 58 59 59 60 61 60 56 55 59 60 59 58 58 60 61 61 60 60 60 58 59 61 61 61 59 56 53 52 53 53
58 58 57 56 55 54 52 50 48 47 47 47 47 47 45 43 43 43 43 43 41 41 42 40 37 37 37 38 37 36 36 36 37 38 39 39 39 40 41 42 42 44 45 46 47 48 48 47 47 47 48 50 51 52 52 53 55 56 57 58 59 60 60 59 56 56 57 59 60 57 58 60 60 60 60 59 59 58 59 59 58 57 55 52 51 50 50 51
55 55 54 54 53 52 51 49 47 47 47 46 47 47 45 43 43 43 42 42 40 40 42 41 38 37 38 38 36 35 35 35 36 37 38 38 38 39 40 40 42 44 45 45 46 47 46 44 46 47 48 49 50 50 51 52 53 54 55 57 58 58 58 57 55 55 56 58 59 58 59 59 59 60 60 59 59 58 57 55 54 54 52 51 49 48 48 49
51 52 52 51 51 51 50 48 47 46 45 46 48 47 45 44 44 43 42 42 40 39 41 41 39 37 37 38 36 34 34 34 35 36 37 37 37 38 39 40 42 43 44 44 45 46 43 44 46 47 47 48 48 49 50 50 51 52 54 55 56 55 55 54 52 54 56 57 58 59 59 58 59 59 59 59 58 56 54 52 51 50 47 48 46 45 46 46
48 49 50 50 49 49 48 48 47 45 45 47 47 47 46 45 44 43 43 42 41 40 40 41 40 38 37 38 36 33 33 34 34 35 36 36 36 37 38 40 41 42 43 44 44 44 43 45 46 46 46 47 47 48 48 49 50 51 52 52 52 52 52 51 51 53 55 56 57 58 57 56 57 58 58 58 57 55 53 50 50 48 45 46 43 41 44 44
46 47 48 48 48 48 47 47 46 45 45 46 46 46 46 46 44 44 43 41 41 41 41 40 40 39 37 37 36 33 33 34 34 34 35 35 36 37 38 39 40 42 43 43 43 43 43 45 46 45 46 47 47 47 47 48 48 48 49 49 49 49 49 49 50 51 53 55 56 57 56 55 55 57 58 56 54 53 52 50 50 48 45 44 40 37 39 40
44 46 47 47 47 47 46 46 46 47 46 45 45 46 46 46 45 44 43 41 42 44 42 41 40 39 38 37 36 34 35 34 33 33 34 35 36 37 37 38 40 41 42 43 43 42 43 44 45 45 47 48 47 45 46 47 47 47 47 47 47 47 47 48 49 50 53 54 54 55 54 54 56 56 55 55 53 51 51 50 47 45 42 39 36 34 36 35
43 45 46 46 46 47 47 47 47 48 47 45 45 46 46 46 45 45 42 41 45 47 44 41 40 40 39 37 36 36 36 34 33 34 35 35 36 36 36 38 39 40 42 43 42 42 43 45 46 47 48 48 46 46 47 47 46 46 47 46 46 46 47 48 48 50 52 52 53 53 52 53 55 53 51 53 51 47 48 46 42 41 38 34 34 36 37 32
43 44 45 46 46 47 48 48 49 49 48 47 46 46 46 46 46 43 41 44 49 48 44 42 41 41 40 37 36 36 36 35 34 34 33 34 36 35 35 37 38 40 42 42 42 43 45 46 47 48 48 47 47 47 47 47 46 46 46 46 46 46 47 48 48 49 50 51 51 50 50 52 54 51 47 48 49 46 44 42 39 39 37 33 33 36 36 34
44 44 45 46 47 48 49 50 51 51 51 50 48 47 47 46 45 42 43 49 51 47 45 45 42 41 40 38 37 36 36 36 35 34 33 35 36 35 35 36 37 40 42 43 44 45 46 46 47 48 47 47 47 47 47 47 46 46 46 46 45 47 48 47 47 47 48 50 49 49 49 50 52 50 43 43 46 45 43 42 39 37 36 35 35 35 35 37
44 45 46 47 48 49 50 52 53 53 53 52 50 48 47 45 43 44 48 52 51 47 46 45 43 42 40 39 38 36 37 36 35 34 34 35 35 35 35 35 36 39 41 42 44 44 45 46 46 46 46 47 47 47 47 47 47 47 46 46 46 48 48 47 46 46 48 49 48 48 48 49 51 47 40 38 39 39 40 40 37 35 36 35 33 34 36 41
44 46 47 48 49 50 51 53 54 55 54 53 51 49 47 45 44 47 52 54 52 48 46 45 45 43 41 40 38 37 37 37 36 35 33 34 35 35 35 34 35 38 40 41 42 43 45 45 46 47 47 48 48 48 48 48 48 47 47 46 47 49 49 47 46 47 49 49 49 49 48 49 50 46 42 42 40 38 38 38 38 37 35 34 33 33 33 36
44 46 47 49 50 51 52 53 54 55 54 54 52 50 47 46 47 51 55 55 52 47 46 47 45 44 42 41 39 38 38 36 36 35 33 33 34 35 35 34 36 38 39 40 42 43 45 45 47 47 47 48 49 48 49 48 48 48 47 47 48 50 49 48 47 48 50 50 48 48 48 48 47 45 44 44 41 38 36 35 37 36 34 36 35 32 31 32
45 46 48 49 50 51 52 53 54 55 55 54 53 50 49 49 51 55 56 55 51 48 48 48 46 44 44 43 41 39 37 36 35 34 33 33 34 35 35 35 36 37 37 40 42 43 45 46 46 46 47 49 49 49 48 48 49 49 48 49 50 51 49 48 48 48 49 49 47 47 47 46 46 45 44 41 38 37 37 36 34 34 36 38 37 33 33 36
46 47 49 50 51 52 53 53 54 55 55 55 52 51 52 52 54 56 55 54 53 51 49 49 46 45 45 45 42 39 38 37 35 34 33 32 32 34 35 36 36 36 37 39 41 43 45 45 45 45 47 48 48 48 48 49 50 49 49 50 51 51 50 49 49 49 49 49 48 47 48 47 47 47 46 44 41 40 39 37 34 33 34 35 35 35 37 40
46 48 49 51 52 53 53 54 55 56 56 55 53 53 55 55 57 58 54 54 57 54 50 49 47 46 47 45 42 40 40 37 35 36 35 32 32 33 36 37 36 37 37 38 40 42 43 44 44 46 47 47 47 48 48 49 50 49 50 52 51 51 51 50 50 50 49 49 49 49 50 50 50 49 48 47 46 45 43 39 34 33 33 32 33 37 40 43
48 49 51 52 53 54 55 55 55 57 57 56 55 56 57 56 58 58 55 55 58 55 51 51 49 46 47 45 42 42 41 36 36 38 36 35 34 33 36 38 37 38 38 37 39 39 40 43 45 46 47 46 47 47 47 49 50 50 51 52 51 51 52 50 50 50 50 51 51 51 51 51 50 48 48 48 49 48 46 43 37 34 34 35 37 39 41 43
49 50 51 52 53 54 55 55 56 57 57 57 57 57 57 57 57 58 56 57 58 55 53 52 48 46 47 47 44 42 41 39 39 39 38 38 36 33 36 38 37 38 38 37 38 38 38 42 44 45 45 45 47 47 48 50 51 50 51 51 51 52 52 51 50 50 50 52 52 52 52 52 51 49 49 51 52 50 48 47 44 42 41 42 43 43 43 43
48 49 50 51 52 53 54 54 56 56 56 57 57 57 57 56 57 58 57 57 57 55 55 51 47 47 49 47 44 43 43 43 40 39 39 39 37 36 38 38 38 39 39 39 40 38 39 40 41 42 42 44 47 48 48 50 50 50 51 51 52 53 53 53 52 51 51 52 51 52 53 53 53 53 53 55 55 52 50 49 50 50 50 49 49 49 48 48
48 48 49 50 51 52 53 54 54 55 55 56 55 56 56 54 57 59 58 57 56 56 56 51 48 50 49 48 47 46 45 43 42 42 42 41 39 38 39 40 39 41 42 42 40 38 39 39 38 39 40 43 46 45 46 49 50 50 51 51 52 53 53 54 53 53 54 53 52 53 53 53 53 54 55 56 55 53 52 52 53 54 53 53 53 53 52 52
48 48 49 49 50 51 52 53 54 54 55 55 54 57 56 55 58 59 56 55 56 56 56 52 50 51 49 50 50 46 45 44 44 44 44 44 42 39 40 41 41 42 43 43 40 39 40 39 38 39 39 42 43 42 45 49 49 49 50 51 51 51 52 53 53 54 55 54 54 55 54 54 53 53 55 57 56 54 54 55 54 54 54 54 54 54 53 53
47 47 47 47 48 48 48 48 50 51 52 52 53 56 56 56 58 58 56 57 58 56 55 53 53 52 50 50 50 47 47 47 45 45 45 46 45 43 44 44 43 43 43 43 42 43 43 41 40 39 39 41 41 41 46 48 47 48 50 50 50 51 52 53 53 55 55 54 54 54 55 56 55 55 56 57 56 55 55 56 54 54 54 54 54 53 53 52
42 41 41 41 41 41 41 41 42 44 46 47 48 51 52 54 57 58 58 60 59 56 55 55 53 51 50 51 51 50 50 48 48 47 47 49 49 48 48 47 45 45 44 43 45 46 46 45 43 42 42 42 42 44 46 45 45 47 49 49 50 52 53 54 54 54 54 54 54 55 56 57 57 57 57 58 57 55 55 55 55 55 55 54 54 52 51 51
37 37 37 36 36 36 36 36 36 37 38 41 43 45 46 49 52 55 58 60 59 57 56 55 53 51 51 51 52 52 51 51 51 50 50 52 51 50 50 48 45 44 43 43 44 46 48 48 47 47 45 44 45 45 45 44 45 47 47 49 51 52 52 53 53 54 54 53 53 54 56 57 56 57 57 58 57 56 55 54 55 56 56 55 54 53 52 52
34 34 35 34 33 33 33 33 34 33 34 37 38 40 42 43 45 49 53 57 58 57 57 56 55 54 53 52 53 53 53 53 53 52 54 54 52 51 51 49 46 44 42 42 43 45 47 48 49 49 48 48 48 47 46 47 47 47 46 48 50 51 52 53 53 54 53 53 53 53 53 54 56 56 57 59 58 57 57 56 56 57 57 56 55 55 55 54
32 32 32 31 30 30 29 29 30 31 32 34 35 36 37 39 41 44 47 51 53 55 57 58 58 57 55 54 54 54 54 55 55 54 55 54 52 53 52 49 48 46 43 43 43 43 45 47 50 51 50 50 50 49 51 51 50 49 48 48 49 50 51 52 52 53 54 55 55 53 51 52 55 55 56 59 59 58 59 59 59 58 58 57 56 57 57 56
29 30 29 28 27 27 26 26 26 27 28 30 31 32 34 35 38 40 43 46 48 51 55 58 59 59 58 56 55 54 55 56 55 54 54 53 53 54 52 50 49 47 45 45 44 43 44 46 49 51 51 52 51 52 54 54 53 51 51 51 51 51 52 52 51 52 53 53 53 52 52 53 55 56 56 58 58 59 60 60 60 59 59 58 57 57 57 56
26 27 27 25 24 24 23 23 22 23 24 26 27 28 30 32 35 37 40 42 44 46 51 56 59 60 59 57 56 54 55 56 55 55 56 55 54 54 53 53 52 51 50 48 45 44 45 46 47 48 50 52 52 54 55 56 56 54 54 54 53 53 53 52 51 52 52 51 51 52 53 54 55 57 58 59 59 59 60 60 59 59 58 57 57 57 56 56
24 24 25 23 21 20 20 20 19 19 20 22 23 24 26 28 31 34 37 39 41 44 47 52 56 59 60 58 57 56 56 57 56 57 57 56 56 55 55 55 55 54 52 49 46 46 46 46 46 46 48 50 52 55 56 58 58 57 56 57 56 55 54 54 54 55 54 54 54 54 55 55 55 57 60 61 60 60 60 60 59 58 57 56 57 57 57 57
22 22 22 21 20 18 17 17 17 16 17 17 19 20 22 25 27 31 33 36 39 42 45 48 52 57 59 60 59 59 58 57 58 58 57 57 57 56 56 57 56 54 52 50 47 47 47 47 47 47 47 49 52 55 56 57 58 58 58 59 58 58 58 58 58 58 57 57 57 57 56 57 57 59 61 62 62 62 62 62 61 61 59 57 57 57 57 58
Wind_Direction
259 259 259 260 260 261 261 262 262 262 262 263 263 263 263 264 264 264 264 264 264 264 264 264 263 263 262 261 261 260 259 258 258 257 256 255 254 253 252 251 250 250 249 249 249 249 249 249 249 249 249 249 249 250 250 250 250 250 250 250 251 251 252 252 252 253 254 255 254 254 254 255 256 256 257 257 258 258 258 259 260 260 260 261 263 263 264 264
260 260 260 261 261 262 262 263 263 263 264 264 264 264 265 265 265 265 265 265 266 265 265 265 265 264 263 263 262 261 260 259 258 257 256 255 255 254 253 252 251 250 249 249 248 248 248 249 249 249 249 249 249 249 250 250 250 250 250 250 251 251 251 252 253 253 254 255 254 254 255 255 255 256 257 257 258 258 259 259 259 260 261 261 261 262 264 264
261 261 261 262 262 263 263 264 264 265 265 265 265 265 266 266 266 266 266 267 267 267 266 266 266 265 264 263 262 261 260 259 258 257 256 255 254 254 253 252 251 250 249 249 248 248 248 248 248 249 249 249 249 249 249 250 250 250 250 251 251 251 252 252 253 253 254 255 255 255 255 255 256 256 257 257 258 258 259 259 260 260 261 262 262 263 263 263
261 262 262 263 263 264 264 265 265 266 266 266 266 266 267 267 267 267 267 267 267 267 267 267 266 266 265 264 263 262 260 259 258 257 256 255 254 253 253 252 251 250 249 249 248 248 248 248 248 248 248 248 249 249 249 249 249 249 250 251 251 251 252 252 252 253 254 254 255 255 255 256 256 256 257 258 258 258 259 259 260 261 261 262 262 262 263 264
262 262 263 263 264 264 265 265 266 266 267 267 267 267 268 268 268 268 268 268 268 268 268 267 267 266 265 264 263 261 260 259 258 257 255 254 253 252 252 251 250 250 249 248 248 248 248 248 248 248 248 248 248 248 248 249 249 249 250 250 251 251 252 252 253 253 253 254 254 255 255 256 256 257 257 258 259 259 259 259 259 260 262 261 260 262 264 265
262 263 263 264 264 265 265 266 266 267 267 268 268 268 269 269 269 269 269 269 269 268 268 267 266 265 264 263 262 261 260 259 257 256 255 254 252 252 251 250 250 249 249 248 248 247 247 247 247 247 247 247 247 248 248 248 249 249 249 250 250 251 251 252 252 252 253 253 254 255 255 255 256 256 257 258 259 260 260 260 260 261 261 261 261 263 264 265
263 263 264 264 265 265 266 267 267 268 268 269 269 270 270 270 270 270 270 269 269 268 267 266 265 264 263 262 261 260 259 258 257 256 254 253 252 251 250 249 249 248 248 247 247 246 246 246 246 246 246 247 246 247 247 248 248 248 249 249 250 250 250 251 251 251 252 253 254 254 255 255 256 256 257 258 259 260 260 260 261 260 260 260 262 264 265 266
263 263 264 264 265 266 267 268 268 269 270 270 271 271 271 271 271 271 270 269 268 267 266 265 264 263 262 261 260 259 259 258 256 256 255 253 252 251 250 249 248 247 247 246 246 246 246 246 246 246 246 246 246 246 247 247 247 248 248 248 249 249 250 250 250 251 251 252 253 254 254 255 256 256 257 258 258 260 261 261 261 260 260 261 262 265 266 267
263 264 264 265 266 267 268 269 270 270 271 271 272 272 272 272 272 271 270 269 268 266 265 264 263 262 261 260 260 259 259 258 256 256 255 254 252 251 250 249 248 247 246 245 245 245 245 245 245 245 245 245 245 245 246 246 246 247 247 248 248 249 249 249 249 250 250 250 252 253 254 254 255 256 257 257 258 259 261 262 262 262 261 261 262 264 266 267
263 264 265 266 267 269 270 270 271 272 272 273 273 273 273 272 271 270 269 268 266 265 264 263 262 261 261 260 260 260 259 258 257 256 255 253 252 250 249 248 247 246 245 245 244 244 244 244 244 244 244 244 243 244 244 244 245 246 247 247 247 248 248 247 248 249 249 249 250 252 253 254 255 256 256 257 258 259 260 261 262 262 263 263 262 265 267 268
264 265 266 267 269 270 271 272 272 273 274 274 274 273 273 272 271 269 268 266 265 264 263 262 262 261 261 261 261 261 260 259 258 256 255 253 252 250 248 247 246 245 244 244 243 243 243 243 244 243 243 243 243 243 243 244 245 245 246 246 246 247 247 247 247 248 249 249 250 251 252 253 254 255 255 256 258 258 259 260 261 262 263 263 264 266 267 267
265 266 267 268 270 271 272 273 273 274 274 274 274 273 272 271 270 268 266 265 264 263 263 262 262 262 262 263 262 261 260 259 258 256 255 253 251 250 248 246 245 244 244 243 242 242 242 242 242 242 242 243 242 242 242 243 244 244 245 245 245 246 247 247 247 247 248 248 249 250 251 253 253 254 255 256 257 258 259 260 261 262 262 262 264 266 266 266
266 267 268 269 270 271 273 273 274 274 274 274 273 272 271 270 268 266 265 264 264 263 263 263 263 263 263 263 263 262 260 259 258 257 255 253 251 249 248 246 245 244 243 242 242 241 241 241 241 242 242 241 241 242 242 243 244 243 245 245 245 247 247 247 247 247 248 249 249 250 251 252 253 254 255 256 257 258 259 260 260 261 261 262 263 262 262 265
267 268 268 270 271 272 273 273 273 273 273 273 272 271 270 268 266 265 265 264 264 264 264 264 264 264 264 264 263 261 260 259 258 257 256 253 251 249 248 246 244 243 242 241 241 240 240 240 240 241 240 240 241 242 242 242 243 244 245 246 247 248 247 247 247 247 249 249 249 250 251 252 253 254 254 255 257 259 259 259 260 260 260 261 261 260 262 266
267 268 269 270 271 271 272 272 272 272 272 272 271 270 268 266 265 265 265 265 265 265 265 265 265 265 265 264 263 261 260 259 258 257 255 253 251 249 247 245 244 242 241 241 240 240 239 239 239 239 239 240 240 240 240 242 243 244 245 247 247 247 247 247 247 248 248 248 249 250 251 252 252 252 254 256 257 258 259 259 260 259 260 261 261 262 264 265
267 268 268 269 270 270 271 271 271 272 271 271 269 268 266 265 265 265 266 266 266 267 266 266 266 266 266 265 263 261 260 259 258 257 255 253 251 249 246 244 243 241 240 239 239 239 239 238 238 238 239 239 239 239 240 242 243 244 245 246 246 247 248 247 247 247 248 249 250 251 251 251 252 252 254 256 256 257 258 259 260 260 260 262 261 262 263 263
266 267 268 268 269 269 270 270 271 271 270 269 267 265 265 265 265 266 266 267 267 267 267 267 267 267 267 266 263 262 261 260 259 257 255 253 250 248 245 243 242 240 239 238 238 238 238 237 237 238 238 239 239 239 240 241 243 244 244 245 246 246 248 248 246 247 249 249 250 250 251 252 252 252 253 254 255 256 257 259 260 261 261 262 261 261 263 265
264 265 266 267 267 268 269 270 271 270 269 268 265 263 263 264 265 266 267 267 268 268 268 268 268 268 268 266 264 263 262 261 259 257 254 252 250 247 244 242 241 240 239 238 237 237 237 237 237 237 237 238 238 239 240 240 241 242 243 245 246 246 248 249 247 247 249 250 250 251 251 252 252 251 251 253 255 256 257 259 261 261 262 262 262 263 264 267
263 264 265 266 267 267 268 269 270 269 268 266 263 262 263 264 265 266 267 267 268 268 268 268 269 269 269 266 264 263 262 261 259 256 253 251 248 246 244 242 240 239 238 237 237 236 236 236 236 236 237 237 238 238 239 239 241 243 244 245 246 247 248 249 247 247 250 250 250 250 251 252 252 250 251 253 255 256 257 259 261 262 262 262 263 264 264 264
262 263 264 265 266 267 268 269 269 268 266 264 262 262 262 263 265 266 267 267 268 268 268 269 269 270 269 267 265 263 262 261 258 255 252 250 247 245 243 241 240 239 237 237 236 236 236 236 236 236 236 236 237 238 239 240 241 243 244 244 245 246 246 248 247 246 249 249 249 250 251 252 252 251 251 253 255 257 258 259 261 262 262 263 264 265 264 264
261 261 262 264 265 266 266 267 266 266 264 262 262 261 262 263 265 266 267 267 268 268 268 269 270 270 269 267 264 263 263 261 258 255 252 249 247 244 243 241 240 239 237 237 236 236 236 235 236 235 235 236 237 238 238 239 239 240 242 243 244 245 245 247 246 245 248 249 248 250 251 252 254 253 252 254 255 257 259 260 262 262 262 263 264 265 266 266
259 260 261 262 263 264 265 264 264 263 262 261 261 262 262 263 265 266 267 267 267 268 268 268 270 270 269 266 264 263 263 261 258 255 252 249 247 245 243 241 239 239 237 236 236 235 235 235 235 235 235 236 236 237 237 237 238 239 241 242 243 244 245 246 247 245 247 248 248 249 251 253 255 255 254 255 256 257 259 260 261 262 263 263 264 266 267 268
257 258 259 260 261 262 263 262 261 261 260 260 262 262 262 263 265 265 266 266 266 267 268 268 269 270 268 266 264 263 263 261 258 255 253 250 247 245 243 241 239 238 237 235 235 235 234 234 235 235 235 235 236 236 236 237 238 239 240 242 243 243 245 246 245 244 246 249 250 250 252 254 255 256 256 256 256 257 258 259 261 263 263 264 265 266 267 267
255 256 257 258 259 260 261 259 259 259 259 260 262 263 263 263 265 265 265 265 265 266 268 267 268 269 268 265 264 263 263 261 257 254 252 249 247 245 243 241 239 238 237 235 234 234 234 234 234 234 234 234 235 235 235 236 237 238 239 241 242 243 244 245 245 245 247 250 251 251 251 253 255 256 257 257 257 257 258 260 261 262 264 265 265 265 266 267
253 254 255 256 257 258 259 257 257 258 259 260 262 263 264 264 264 265 265 265 264 265 267 267 267 268 268 266 263 263 263 260 256 253 252 249 247 245 243 241 239 237 237 235 235 234 234 234 234 234 234 234 235 235 236 236 237 238 239 240 241 242 244 245 246 247 247 249 250 250 251 252 254 256 256 257 257 257 258 259 261 263 264 265 264 265 266 268
251 252 253 254 256 257 257 256 256 258 259 261 262 263 264 264 264 265 265 265 264 264 265 267 267 267 267 266 264 262 262 260 257 253 251 249 247 245 242 240 238 237 236 235 235 234 233 233 234 234 234 234 235 235 236 236 237 238 239 240 242 243 245 246 246 246 247 248 250 250 250 252 253 255 257 258 258 259 259 260 261 262 262 264 265 266 267 268
250 251 252 253 255 256 256 255 256 258 259 260 262 263 264 264 264 265 265 265 265 264 264 265 266 265 266 266 264 262 261 260 256 252 250 248 246 244 242 239 237 236 236 235 234 234 232 232 233 233 234 235 235 235 236 237 237 238 240 241 242 243 244 245 245 246 247 248 249 250 250 251 254 255 256 257 258 259 259 260 261 261 263 265 266 265 266 266
250 251 252 253 254 255 253 254 257 258 258 259 261 262 263 264 264 265 265 266 265 264 262 262 263 264 265 266 265 262 259 258 256 253 250 247 245 243 242 239 237 235 235 235 234 233 232 232 233 234 235 235 235 236 237 238 238 239 240 241 242 243 243 244 244 245 247 247 249 250 251 251 253 254 255 257 257 259 259 260 262 264 267 268 267 264 263 266
251 251 252 252 253 252 251 253 257 258 258 258 260 262 263 263 264 264 265 266 266 263 260 260 262 264 264 264 264 261 258 258 257 253 249 245 243 242 241 239 236 235 234 234 233 232 232 232 233 233 234 234 234 235 236 237 237 238 239 240 241 242 242 242 243 244 245 246 248 250 251 252 252 253 255 257 258 259 260 260 261 263 263 264 265 263 264 269
252 252 252 252 251 250 250 252 255 257 258 258 260 262 263 263 264 264 266 267 264 261 260 260 261 262 262 263 263 260 258 257 256 252 249 246 244 242 241 239 237 235 234 233 232 231 231 231 231 231 232 233 233 233 234 235 236 237 238 239 239 240 241 241 242 243 245 246 247 249 250 252 252 253 254 256 257 258 260 260 259 259 258 256 258 258 260 264
253 253 252 252 251 250 251 253 255 257 258 259 261 262 263 263 263 264 266 263 261 261 262 260 259 260 261 262 261 259 257 256 254 252 250 246 244 241 240 239 236 234 234 233 231 231 230 230 230 231 232 232 232 233 234 235 235 236 238 239 239 240 240 241 242 243 246 247 248 249 249 251 252 252 252 256 258 256 256 257 255 256 253 246 246 250 255 259
255 255 254 254 252 251 252 254 256 257 259 260 261 262 262 263 264 265 263 260 260 260 261 260 259 260 261 261 260 259 256 254 254 253 249 246 244 241 240 238 236 235 234 232 231 230 231 230 231 232 232 233 233 233 234 235 235 236 237 238 239 240 240 240 242 243 245 247 247 247 247 249 251 251 252 257 260 256 253 253 252 253 251 242 239 242 249 254
257 257 257 256 254 253 253 254 256 258 259 260 260 261 261 262 264 263 260 258 259 258 259 261 261 260 260 260 260 258 256 254 253 252 249 247 244 241 240 238 236 236 235 234 233 232 232 232 233 233 233 233 233 233 234 234 235 235 236 237 238 240 240 240 241 242 243 245 245 245 246 247 249 250 249 251 254 255 253 252 249 248 248 245 237 233 238 244
259 259 259 258 257 256 255 256 257 259 259 260 260 259 259 261 261 260 258 257 257 258 259 260 260 259 259 259 258 257 254 252 252 251 249 248 245 242 240 237 236 236 235 234 234 233 234 233 233 233 233 233 233 232 233 233 234 235 236 237 238 240 240 239 239 240 242 243 243 244 245 246 249 250 246 244 247 252 254 254 252 249 246 242 234 232 240 245
260 260 260 259 259 258 258 258 258 259 259 259 259 259 259 259 258 257 256 256 257 257 258 258 258 258 258 257 256 254 252 250 250 251 249 248 246 243 239 237 236 235 234 234 233 233 233 233 233 233 233 234 233 233 233 233 234 235 235 236 238 240 240 239 239 241 243 244 245 247 247 248 250 251 248 247 249 251 251 252 254 253 246 240 236 237 243 245
261 261 261 261 260 260 259 259 259 259 259 259 259 259 259 258 256 255 255 257 258 256 255 255 256 256 256 256 254 252 250 248 247 249 249 248 246 244 240 237 237 237 235 235 234 233 233 233 233 233 233 234 234 234 234 234 235 235 235 236 238 240 241 241 241 241 244 246 246 248 249 249 250 250 249 249 248 246 246 248 251 251 247 244 241 237 237 240
263 262 262 261 261 261 260 260 260 260 260 259 259 259 258 257 255 255 255 257 257 254 253 254 254 254 254 254 252 251 247 244 244 245 246 245 245 244 241 237 237 237 235 235 235 234 234 234 234 234 234 234 235 235 235 235 235 236 236 237 238 240 241 242 242 243 244 246 246 247 248 248 248 249 249 248 245 244 246 247 248 249 251 251 245 238 236 238
264 264 263 262 262 262 261 260 260 260 260 260 259 258 257 256 255 255 254 255 255 254 253 253 252 251 252 251 251 249 246 242 242 243 242 241 241 241 241 238 235 236 236 236 236 235 235 235 234 234 235 235 235 236 236 237 237 236 237 238 239 240 241 241 243 243 244 245 246 246 247 248 248 249 250 251 249 248 247 246 245 246 249 251 249 243 239 237
265 264 264 263 263 262 262 261 261 260 260 260 258 257 256 255 255 255 254 254 254 254 252 251 250 249 250 250 247 246 245 240 238 239 239 238 238 238 241 239 235 235 236 236 237 236 236 237 235 234 234 235 235 235 236 238 238 237 237 238 239 241 242 242 243 244 245 245 246 247 247 248 249 251 252 252 252 251 249 247 244 241 243 246 247 246 244 241
266 265 265 264 264 263 263 262 261 261 260 259 258 257 256 255 255 255 253 252 253 253 251 250 249 248 247 247 244 242 243 240 236 236 235 235 235 234 238 240 237 234 234 235 236 235 235 237 237 236 235 235 236 235 234 236 237 237 238 239 240 241 242 242 243 244 245 245 246 247 248 248 249 250 250 251 251 251 251 250 247 245 245 246 248 250 250 249
268 267 266 266 265 265 264 263 262 261 260 259 257 256 255 254 254 253 252 251 251 251 250 248 246 244 243 244 242 239 238 237 236 235 234 234 233 231 233 236 237 235 233 233 234 233 234 236 237 237 237 236 236 235 235 236 237 237 238 239 239 241 242 242 241 242 244 245 245 246 248 248 248 248 248 250 251 252 252 252 252 251 250 251 252 254 255 255
271 270 269 268 267 266 265 264 262 261 260 259 257 256 255 252 251 251 250 249 249 248 248 246 243 241 241 240 239 236 235 235 234 234 234 233 231 230 231 232 233 233 232 231 232 233 234 236 236 236 236 237 236 235 236 237 236 237 238 239 239 240 242 243 242 243 243 244 245 245 247 248 249 249 249 250 251 252 252 252 252 253 254 255 255 256 257 258
274 273 272 270 269 267 266 265 264 262 260 258 257 255 254 251 250 249 249 248 247 246 246 244 241 239 237 237 237 235 234 233 232 232 234 233 230 230 232 232 230 231 232 231 231 232 234 234 234 233 234 236 236 234 235 237 236 236 237 238 239 240 241 243 243 243 244 244 245 246 246 246 247 248 249 250 250 250 250 251 252 253 254 254 255 255 257 258
276 276 275 273 271 269 268 267 265 264 262 259 256 254 252 250 249 249 247 245 244 243 243 241 239 237 235 235 235 233 231 231 230 230 233 234 231 229 231 232 231 230 230 230 229 230 232 232 233 233 233 235 235 234 235 236 235 235 236 236 237 238 239 240 241 242 243 244 244 245 246 245 245 246 248 249 250 249 250 251 252 252 252 252 253 254 255 256
280 279 278 276 275 273 271 268 265 263 262 260 256 253 250 248 247 246 244 243 242 241 240 239 238 236 234 232 232 231 229 228 227 227 229 232 232 230 231 232 233 232 230 229 228 229 230 230 230 231 232 233 234 234 234 234 234 235 235 235 236 236 238 240 241 242 243 243 244 245 246 246 246 246 247 249 250 250 251 251 251 251 251 251 252 253 253 254
286 285 284 283 282 280 277 274 269 264 262 260 257 253 250 247 245 244 242 242 241 239 238 238 238 236 233 231 230 230 228 227 226 225 226 230 231 231 232 232 233 234 233 231 230 231 231 231 231 231 230 232 235 236 236 235 234 234 234 234 235 236 238 239 241 242 243 243 245 246 247 248 248 248 248 249 250 250 250 250 251 251 251 252 254 254 254 254
291 290 289 289 287 284 281 277 274 269 264 260 256 253 250 246 243 241 240 240 239 237 235 235 234 233 232 230 229 228 227 227 226 225 226 228 230 232 233 232 233 233 233 232 232 233 234 234 234 234 232 232 234 236 237 237 235 235 235 235 236 236 237 238 239 241 242 242 243 244 247 249 249 249 249 250 250 250 250 251 252 253 253 254 255 255 255 255
294 293 292 291 290 286 282 278 274 269 265 261 256 252 249 245 241 239 238 238 236 234 232 231 231 231 230 228 227 227 227 227 226 226 227 228 229 231 233 233 233 233 233 233 234 234 235 235 236 237 237 235 235 235 237 238 237 235 235 235 236 237 237 238 239 240 240 241 241 242 244 246 248 249 250 251 251 252 252 252 252 253 255 256 256 256 256 255
297 297 296 296 295 292 288 282 276 270 265 260 256 251 247 242 238 235 234 234 233 231 230 229 228 229 229 227 226 226 226 227 227 227 228 228 229 231 233 233 234 234 234 234 234 234 235 236 236 238 239 239 238 238 239 241 240 239 238 237 237 237 238 238 239 239 240 241 241 242 242 243 245 248 249 250 251 252 253 252 252 253 254 255 256 257 257 257
304 303 302 301 299 296 292 287 280 273 266 261 257 252 246 241 237 233 231 230 229 228 227 227 226 227 227 227 226 225 225 227 227 227 227 228 228 229 231 232 232 232 232 233 233 234 236 237 237 238 239 240 240 240 241 243 243 243 243 242 241 241 241 241 241 241 241 241 241 241 241 242 243 245 247 248 249 249 251 253 254 254 254 254 256 256 256 257
310 309 308 307 305 302 298 293 286 277 268 262 257 251 246 241 236 232 229 227 226 224 225 225 224 225 226 226 225 224 224 225 226 227 227 228 228 228 229 231 231 231 231 232 233 235 237 238 238 238 239 241 242 242 242 243 244 244 244 245 245 245 245 245 244 244 244 244 243 243 243 243 243 244 246 248 249 250 252 254 255 256 256 256 256 256 256 257
317 317 316 315 313 310 305 299 291 282 272 263 257 250 244 239 234 231 228 225 223 222 222 223 222 223 224 224 224 224 224 224 226 227 227 228 229 229 229 231 232 232 231 231 232 235 237 238 239 238 239 240 241 242 243 244 245 246 246 247 246 245 245 245 245 245 246 246 246 246 246 246 245 245 247 249 251 252 253 254 255 257 258 258 257 258 258 258